Location: Mason-Dixon Star Party
(40.0361°N, 76.9958°W)
Time: 08:19:40
(UTC-05:00)

Daily predictions for brighter satellites

Satellite Brightness Start Highest point End
(mag) Time Altitude Azimuth Time Altitude Azimuth Time Altitude Azimuth
CENTAUR R/B 4.2 17:38:49 10° W 17:44:05 27° NW 17:49:55 10° NNE
Cosmos 1980 4.4 17:41:58 10° SW 17:47:33 58° WNW 17:53:10 10° NNE
AQUARIUS 4.5 17:44:44 10° S 17:49:12 75° WSW 17:53:44 10° NNW
Lacrosse 4 Rocket 2.7 17:47:59 10° N 17:50:59 20° NE 17:54:00 10° E
Cosmos 1626 2.9 17:50:35 10° SSE 17:53:55 31° E 17:57:16 10° NNE
USA 229 DEB 4.2 17:50:55 10° S 17:57:13 41° ESE 18:03:36 10° NE
USA 229 4.2 17:51:02 10° S 17:57:19 40° ESE 18:03:41 10° NE
Cosmos 1151 Rocket 3.8 17:55:32 10° NNW 17:59:45 57° W 18:03:58 10° S
Resurs 01 Rocket 3.4 17:59:17 10° E 18:01:06 12° ENE 18:02:54 10° NE
Cosmos 2219 Rocket 4.0 17:58:02 10° WSW 18:02:53 29° WNW 18:07:46 10° N
Cosmos 2058 3.1 18:00:29 10° SSW 18:04:34 74° W 18:08:41 10° N
Meteor 1-11 4.4 17:59:52 10° S 18:05:34 82° W 18:11:23 10° N
Cosmos 1184 Rocket 3.6 18:02:49 10° SSE 18:05:48 30° E 18:08:46 10° NNE
Cosmos 1726 3.7 18:04:34 10° NNW 18:08:08 40° W 18:11:41 10° SSW
Cosmos 2279 Rocket 4.0 18:02:14 10° N 18:08:29 87° E 18:14:44 10° S
MONITOR-E 4.2 18:05:34 10° S 18:08:44 85° WSW 18:11:55 10° NNW
Iridium 4 Rocket 4.2 18:06:44 10° SE 18:10:07 22° E 18:13:23 10° NNE
Cosmos 1603 4.4 18:07:49 10° SSE 18:12:42 32° ESE 18:17:32 10° NE
Cosmos 2333 Rocket 3.9 18:08:49 10° WSW 18:13:45 31° WNW 18:18:44 10° N
Cosmos 1461 3.5 18:10:36 10° SW 18:14:42 53° NW 18:18:41 10° NNE
Cosmos 304 Rocket 4.1 18:10:15 10° SSW 18:15:01 68° WNW 18:19:50 10° NNE
Aureole 1 Rocket 4.1 18:10:21 10° S 18:15:35 50° E 18:22:25 10° NNE
FREGAT/IRIS 3.9 18:13:27 10° ESE 18:15:51 21° ENE 18:18:15 10° NNE
Lacrosse 5 rocket 3.4 18:13:12 10° WNW 18:16:31 28° SW 18:19:58 10° S
Cosmos 2278 Rocket 3.9 18:14:26 10° NW 18:19:37 37° WSW 18:24:46 10° S
Cosmos 1242 Rocket 3.7 18:17:08 10° NNE 18:19:51 21° ENE 18:22:34 10° SE
Tiangong 1 2.4 18:18:54 10° SSW 18:21:26 26° SSE 18:22:42 19° ESE
Cosmos 1455 2.3 18:17:44 10° N 18:21:28 51° E 18:25:12 10° SSE
Cosmos 1805 Rocket 3.6 18:17:21 10° S 18:21:49 84° W 18:26:18 10° N
Cosmos 1356 Rocket 3.2 18:19:49 10° S 18:23:47 79° E 18:27:48 10° NNE
SKYMED 2 3.7 18:21:35 10° N 18:25:57 78° WNW 18:30:16 10° SSW
Nadezhda 4 Rocket 4.0 18:20:40 10° S 18:26:51 67° E 18:33:07 10° NNE
Cosmos 2242 Rocket 3.8 18:26:03 10° N 18:30:18 44° E 18:34:34 10° SSE
Cosmos 1538 Rocket 4.2 18:25:25 10° SSW 18:30:42 79° WNW 18:36:06 10° NNE
Sich 1 3.0 18:28:11 10° S 18:32:37 82° E 18:37:04 10° N
Cosmos 1703 4.1 18:32:12 10° SSW 18:36:00 51° W 18:39:49 10° N
Coronas F rocket 0.7 18:35:04 10° S 18:37:26 76° E 18:37:55 50° NNE
Cosmos 923 Rocket 4.1 18:33:28 10° S 18:38:32 54° ESE 18:42:59 13° NNE
Cosmos 2237 Rocket 4.3 18:38:20 10° WSW 18:42:48 24° NW 18:47:18 10° N
SJ-6B 2.8 18:39:39 10° SSE 18:43:41 62° ENE 18:47:48 10° N
Cosmos 1633 Rocket 3.1 18:40:02 10° S 18:44:26 84° W 18:48:51 10° N
Cosmos 1680 Rocket 3.7 18:39:35 10° S 18:44:34 47° ESE 18:47:47 21° NE
Cosmos 2369 Rocket 3.0 18:41:52 10° N 18:46:38 27° NE 18:47:04 27° ENE
NOSS 3-1 (C) 4.0 18:43:19 10° S 18:48:22 33° ESE 18:50:00 28° E
Cosmos 1092 Rocket 3.9 18:43:56 10° S 18:50:14 73° E 18:56:34 10° N
SL-16 R/B 3.3 18:46:18 10° SW 18:51:40 43° WNW 18:57:04 10° N
Lacrosse 5 3.8 18:53:23 10° NNW 18:55:55 14° NNE 18:56:21 13° NNE
USA 215 3.3 18:56:43 27° ESE 19:00:19 57° NE 19:06:42 10° NW
ALOS 2.3 18:56:55 10° SSE 19:01:28 56° ENE 19:06:02 10° N
Cosmos 773 Rocket 4.4 18:56:59 10° SSW 19:02:05 61° WNW 19:07:17 10° NNE
METEOR-M 4.5 19:03:47 10° S 19:09:05 66° W 19:14:26 10° NNW
Cosmos 1862 Rocket 3.4 19:04:55 10° N 19:09:17 67° E 19:13:36 10° SSE
FENGYUN 3A 3.5 19:05:52 10° SSE 19:11:11 69° ENE 19:16:32 10° N
BREEZE-M DEB (TANK) 4.4 19:07:04 10° SSW 19:11:27 43° ESE 19:15:10 32° ENE
Cosmos 292 Rocket 3.8 19:07:01 10° SSW 19:11:46 80° WNW 19:14:24 27° NNE
Cosmos 2195 Rocket 4.3 19:06:23 10° S 19:12:26 71° E 19:18:35 10° NNE
Genesis I 4.1 19:10:02 10° SSW 19:12:42 37° SSE 19:12:42 37° SSE
Cosmos 2112 Rocket 3.9 19:16:09 10° SSW 19:21:21 88° ESE 19:23:17 40° NNE
Meteor 2-20 Rocket 4.5 19:15:48 10° SSE 19:21:40 52° E 19:22:00 51° E
Cosmos 1943 3.1 19:22:53 10° S 19:28:29 65° ESE 19:28:35 64° ESE
Lacrosse 4 Rocket 2.8 19:26:05 10° NW 19:29:48 36° WSW 19:33:02 13° S
ATLAS 5 CENTAUR R/B 3.6 19:26:08 10° NNW 19:29:30 25° NNE 19:29:30 25° NNE
Cosmos 1933 Rocket 4.2 19:28:43 10° SSW 19:33:03 54° W 19:35:24 25° NNW
Resurs 01 Rocket 1.9 19:32:35 10° S 19:37:00 66° WSW 19:41:26 10° NNW
Cosmos 1417 Rocket 4.3 19:33:26 10° N 19:39:38 77° E 19:45:45 10° S
H-2A ROCKET BODY 3.7 19:27:09 10° W 19:43:20 36° SSW 19:45:25 29° SSE
Cosmos 1943 Rocket 4.0 19:42:54 10° N 19:44:32 19° N 19:44:32 19° N
Spot 2 Rocket 4.1 19:46:23 10° S 19:51:17 53° W 19:56:13 10° NNW
Cosmos 1655 Rocket 4.1 19:44:58 10° S 19:51:21 78° W 19:57:43 10° N
CZ-4C R/B 4.0 19:52:30 10° NNW 19:56:23 27° N 19:56:23 27° N
NOSS 3-1 (A) 3.7 19:55:43 10° SSW 20:00:05 55° SSW 20:00:05 55° SSW
Cosmos 2369 Rocket 3.6 20:25:29 10° NW 20:28:57 33° WNW 20:28:57 33° WNW
USA 215 4.2 20:44:05 41° WSW 20:44:05 41° WSW 20:49:34 10° WNW
